CW6099 Weather Reports


time (UTC)temp
F
wind
direction
speed
knots
gust
knots
rain 1hr
in
rain 24hr
in
rain mn
in
humidity
%
barometer
mb
20260510230417 66 186 2.6 4.3 0.00 0.15 0.15 49 1023.1
20260510230328 66 180 1.7 6.1 0.00 0.15 0.15 48 1023.1
20260510225419 66 164 4.3 7.0 0.00 0.15 0.15 49 1023.1
20260510225312 66 150 4.3 7.0 0.00 0.15 0.15 50 1023.1
20260510224422 66 231 1.7 7.0 0.00 0.15 0.15 47 1023.1
20260510224335 66 133 2.6 7.8 0.00 0.15 0.15 47 1023.1
20260510223426 67 235 7.0 18.2 0.00 0.15 0.15 48 1023.1
20260510223319 67 192 7.0 18.2 0.00 0.15 0.15 48 1023.1
20260510222411 66 141 5.2 13.0 0.00 0.15 0.15 49 1023.1
20260510222323 66 141 5.2 13.0 0.00 0.15 0.15 49 1023.1
20260510221435 66 215 7.0 9.6 0.00 0.15 0.15 47 1023.1
20260510221311 67 182 7.0 9.6 0.00 0.15 0.15 47 1023.1
20260510220422 67 248 5.2 7.8 0.00 0.15 0.15 49 1023.3
20260510220313 67 221 6.1 7.8 0.00 0.15 0.15 50 1023.3
20260510215426 67 227 2.6 6.1 0.00 0.15 0.15 46 1023.4
20260510215318 67 243 2.6 6.1 0.00 0.15 0.15 50 1023.3
20260510214426 66 257 3.5 7.0 0.00 0.15 0.15 52 1023.4
20260510214318 66 250 4.3 7.0 0.00 0.15 0.15 52 1023.4
20260510213431 66 206 5.2 7.8 0.00 0.15 0.15 47 1023.5
20260510213326 66 184 6.1 7.8 0.00 0.15 0.15 51 1023.6
20260510212437 65 96 2.6 7.0 0.00 0.15 0.15 51 1023.7
20260510212328 65 88 0.9 7.0 0.00 0.15 0.15 49 1023.7
20260510211417 64 82 2.6 7.8 0.00 0.15 0.15 50 1023.8
20260510211310 64 72 1.7 7.8 0.00 0.15 0.15 51 1023.8
20260510210424 65 184 7.0 12.2 0.00 0.15 0.15 49 1023.8
20260510210317 65 182 7.0 12.2 0.00 0.15 0.15 48 1023.8
20260510205449 65 200 2.6 8.7 0.00 0.15 0.15 52 1023.8
20260510205318 65 155 2.6 8.7 0.00 0.15 0.15 50 1023.8
20260510204429 65 15 2.6 10.4 0.00 0.15 0.15 49 1023.9
20260510204325 65 204 3.5 12.2 0.00 0.15 0.15 51 1023.9
20260510203415 64 175 6.1 12.2 0.00 0.15 0.15 53 1024.0
20260510203347 64 165 5.2 12.2 0.00 0.15 0.15 53 1024.0
20260510202417 64 75 3.5 12.2 0.00 0.15 0.15 52 1024.1
20260510202311 64 138 2.6 12.2 0.00 0.15 0.15 52 1024.1
20260510201423 63 140 2.6 7.0 0.00 0.15 0.15 53 1024.2
20260510201316 63 82 3.5 7.0 0.00 0.15 0.15 52 1024.2
20260510200426 63 277 0.9 8.7 0.00 0.15 0.15 51 1024.4
20260510200323 63 243 3.5 8.7 0.00 0.15 0.15 52 1024.5
20260510195415 63 201 4.3 7.8 0.00 0.15 0.15 54 1024.5
20260510195327 63 156 5.2 7.8 0.00 0.15 0.15 53 1024.5
20260510194439 63 94 2.6 7.8 0.00 0.15 0.15 52 1024.5
20260510194329 63 136 2.6 7.8 0.00 0.15 0.15 57 1024.5
20260510193419 62 63 2.6 8.7 0.00 0.15 0.15 51 1024.7
20260510193313 62 155 3.5 8.7 0.00 0.15 0.15 52 1024.7
20260510192424 61 103 3.5 7.0 0.00 0.15 0.15 56 1024.7
20260510192316 61 180 2.6 7.0 0.00 0.15 0.15 56 1024.7
20260510191413 61 158 4.3 8.7 0.00 0.15 0.15 56 1024.7
20260510191326 61 135 3.5 8.7 0.00 0.15 0.15 56 1024.7
20260510190417 60 146 1.7 6.1 0.00 0.15 0.15 58 1024.8
20260510190328 60 32 0.9 7.0 0.00 0.15 0.15 56 1024.8
20260510185415 59 84 2.6 8.7 0.00 0.15 0.15 56 1025.0
20260510185315 59 63 2.6 8.7 0.00 0.15 0.15 56 1025.0
20260510184424 60 54 2.6 5.2 0.00 0.15 0.15 61 1025.1
20260510184335 59 80 1.7 5.2 0.00 0.15 0.15 62 1025.1
20260510183412 59 52 4.3 7.8 0.00 0.15 0.15 61 1025.0
20260510183332 59 71 3.5 7.0 0.00 0.15 0.15 63 1025.0
20260510182430 58 107 2.6 7.8 0.00 0.15 0.15 64 1025.0
20260510182314 58 74 2.6 7.8 0.00 0.15 0.15 61 1025.1
20260510181440 58 146 2.6 6.1 0.00 0.15 0.15 65 1025.0
20260510181332 58 28 1.7 6.1 0.00 0.15 0.15 67 1025.1
20260510180427 58 169 3.5 6.1 0.00 0.15 0.15 68 1025.1
20260510180335 58 182 2.6 7.0 0.00 0.15 0.15 69 1025.1
20260510175430 57 67 1.7 7.0 0.00 0.15 0.15 71 1025.1
20260510175324 57 146 2.6 7.0 0.00 0.15 0.15 72 1025.0
20260510174432 56 173 3.5 7.0 0.00 0.15 0.15 77 1025.1
20260510174329 56 188 2.6 6.1 0.00 0.15 0.15 76 1025.1
20260510173417 55 177 1.7 6.1 0.00 0.15 0.15 79 1025.0
20260510173330 55 165 1.7 6.1 0.00 0.15 0.15 80 1025.0
20260510172449 55 148 3.5 8.7 0.00 0.15 0.15 82 1025.2
20260510172325 54 141 3.5 8.7 0.00 0.15 0.15 80 1025.2
20260510171413 54 175 1.7 4.3 0.00 0.15 0.15 81 1025.1
20260510171317 54 144 2.6 4.3 0.00 0.15 0.15 82 1025.2
20260510170424 54 163 3.5 5.2 0.00 0.15 0.15 81 1025.1
20260510170317 54 88 4.3 7.0 0.00 0.15 0.15 82 1025.2
20260510165418 54 78 2.6 6.1 0.00 0.15 0.15 82 1025.3
20260510165314 54 52 2.6 6.1 0.00 0.15 0.15 82 1025.2
20260510164412 53 50 2.6 6.1 0.00 0.15 0.15 83 1025.3
20260510164310 53 46 1.7 6.1 0.00 0.15 0.15 83 1025.3
20260510163411 53 67 3.5 6.1 0.00 0.15 0.15 83 1025.3
20260510163326 53 48 3.5 6.1 0.00 0.15 0.15 82 1025.3
20260510162420 53 70 3.5 5.2 0.00 0.15 0.15 81 1025.2
20260510162314 53 33 3.5 5.2 0.00 0.15 0.15 82 1025.2
20260510161440 53 59 1.7 4.3 0.00 0.15 0.15 82 1025.3
20260510161340 53 61 0.9 3.5 0.00 0.15 0.15 81 1025.3
20260510160430 52 36 0.9 1.7 0.00 0.15 0.15 83 1025.3
20260510160322 52 26 0.9 1.7 0.00 0.15 0.15 82 1025.2
20260510155411 52 49 0.0 2.6 0.00 0.15 0.15 83 1025.3
20260510155319 52 49 0.0 2.6 0.00 0.15 0.15 82 1025.3
20260510154410 51 50 0.9 2.6 0.00 0.15 0.15 82 1025.3
20260510154324 51 183 0.0 0.0 0.00 0.15 0.15 82 1025.2
20260510153414 51 174 0.0 0.9 0.00 0.15 0.15 85 1025.0
20260510153327 51 161 0.0 1.7 0.00 0.15 0.15 84 1025.0
20260510152418 50 17 0.0 1.7 0.00 0.15 0.15 86 1025.0
20260510152312 50 17 0.0 1.7 0.00 0.15 0.15 86 1025.0
20260510151421 50 17 0.0 0.9 0.00 0.15 0.15 87 1025.0
20260510151319 50 17 0.0 0.9 0.00 0.15 0.15 87 1025.0
20260510150411 49 132 0.0 0.0 0.00 0.15 0.15 87 1024.8
20260510150324 49 132 0.0 0.0 0.00 0.15 0.15 87 1024.8
20260510145415 49 130 0.0 2.6 0.00 0.15 0.15 88 1024.8
20260510145327 49 130 0.9 2.6 0.00 0.15 0.15 88 1024.8
20260510144417 49 151 0.9 2.6 0.00 0.15 0.15 89 1024.7
20260510144331 49 152 0.9 3.5 0.00 0.15 0.15 89 1024.7
20260510143421 49 154 1.7 3.5 0.00 0.15 0.15 90 1024.8
20260510143334 49 119 1.7 3.5 0.00 0.15 0.15 89 1024.7
20260510142424 49 138 0.0 2.6 0.00 0.15 0.15 89 1024.7
20260510142319 49 201 0.0 3.5 0.00 0.15 0.15 89 1024.6
20260510141431 49 143 1.7 6.1 0.00 0.15 0.15 90 1024.6
20260510141322 49 171 0.9 6.1 0.00 0.15 0.15 90 1024.7
20260510140412 49 139 2.6 5.2 0.00 0.15 0.15 91 1024.8
20260510140325 49 92 1.7 5.2 0.00 0.15 0.15 91 1024.8
20260510135417 49 329 1.7 6.1 0.00 0.15 0.15 91 1024.8
20260510135310 49 83 1.7 6.1 0.00 0.15 0.15 92 1024.8
20260510134422 49 198 1.7 4.3 0.00 0.15 0.15 92 1024.7
20260510134314 49 160 0.9 4.3 0.00 0.15 0.15 92 1024.7
20260510133410 49 67 1.7 6.1 0.00 0.15 0.15 91 1024.7
20260510133324 49 159 1.7 6.1 0.00 0.15 0.15 91 1024.7
20260510132415 49 91 2.6 5.2 0.00 0.15 0.15 90 1024.6
20260510132326 49 87 2.6 5.2 0.00 0.15 0.15 90 1024.6
20260510131420 49 69 3.5 7.0 0.00 0.15 0.15 91 1024.4
20260510131310 49 91 3.5 7.0 0.00 0.15 0.15 91 1024.3
20260510130423 49 80 6.1 7.8 0.00 0.15 0.15 94 1023.9
20260510130313 49 82 6.1 7.8 0.00 0.15 0.15 94 1023.9
20260510125425 49 55 4.3 8.7 0.00 0.15 0.15 96 1024.1
20260510125320 49 47 5.2 8.7 0.00 0.15 0.15 96 1024.0
20260510124409 49 13 3.5 8.7 0.02 0.15 0.15 97 1023.9
20260510124322 49 21 2.6 8.7 0.02 0.15 0.15 97 1023.8
20260510123410 49 42 4.3 7.8 0.06 0.15 0.15 97 1023.2
20260510123321 49 55 3.5 7.8 0.07 0.15 0.15 97 1023.2
20260510122411 49 42 4.3 7.8 0.08 0.15 0.15 97 1022.9
20260510122324 49 46 5.2 7.8 0.08 0.15 0.15 97 1022.9
20260510121416 49 355 5.2 8.7 0.09 0.15 0.15 97 1022.5
20260510121311 49 45 5.2 8.7 0.09 0.15 0.15 97 1022.6
20260510120423 49 42 7.0 12.2 0.09 0.15 0.15 96 1022.0
20260510120316 49 32 6.1 12.2 0.09 0.15 0.15 96 1022.0
20260510115427 49 53 7.0 9.6 0.10 0.15 0.15 96 1021.7
20260510115317 49 43 7.0 9.6 0.10 0.15 0.15 95 1021.7
20260510114409 49 32 4.3 7.0 0.08 0.13 0.13 95 1022.3
20260510114321 49 42 3.5 7.0 0.08 0.13 0.13 95 1022.4
20260510113411 49 132 3.5 4.3 0.05 0.09 0.09 95 1021.9
20260510113328 49 84 3.5 4.3 0.04 0.08 0.08 95 1021.9
20260510112417 49 28 5.2 9.6 0.03 0.07 0.07 95 1022.4
20260510112310 49 336 5.2 9.6 0.03 0.07 0.07 95 1022.4
20260510111422 49 336 6.1 12.2 0.02 0.06 0.06 95 1022.7
20260510111315 49 344 6.1 13.0 0.02 0.06 0.06 95 1022.6
20260510110424 50 307 9.6 14.8 0.02 0.06 0.06 95 1022.6
20260510110316 50 309 8.7 14.8 0.02 0.06 0.06 95 1022.5
20260510105427 50 325 10.4 16.5 0.01 0.05 0.05 94 1022.3
20260510105324 50 302 10.4 16.5 0.01 0.05 0.05 94 1022.3
20260510104436 50 302 9.6 14.8 0.01 0.05 0.05 94 1022.2
20260510104346 50 329 9.6 14.8 0.01 0.05 0.05 94 1022.2
20260510103416 49 336 8.7 13.0 0.00 0.04 0.04 93 1021.9
20260510103329 49 336 8.7 12.2 0.00 0.04 0.04 93 1021.9
20260510102419 49 315 5.2 7.8 0.00 0.04 0.04 92 1021.6
20260510102312 49 331 5.2 7.8 0.00 0.04 0.04 92 1021.5
20260510101443 49 324 3.5 5.2 0.00 0.04 0.04 92 1021.3
20260510101316 49 330 3.5 5.2 0.00 0.04 0.04 92 1021.3
20260510100427 49 360 3.5 7.0 0.00 0.04 0.04 92 1021.2
20260510100322 49 360 3.5 7.0 0.00 0.04 0.04 92 1021.2
20260510095413 50 5 5.2 10.4 0.00 0.04 0.04 92 1021.0
20260510095325 49 350 5.2 10.4 0.00 0.04 0.04 92 1021.0
20260510094416 49 355 7.8 10.4 0.00 0.04 0.04 92 1020.9
20260510094309 49 5 6.1 10.4 0.00 0.04 0.04 92 1020.9
20260510093420 50 9 7.8 11.3 0.00 0.04 0.04 92 1020.7
20260510093314 50 355 7.8 11.3 0.00 0.04 0.04 92 1020.6
20260510092426 50 309 7.8 12.2 0.00 0.04 0.04 92 1020.5
20260510092322 50 36 7.0 12.2 0.00 0.04 0.04 92 1020.5
20260510091414 50 34 7.8 13.0 0.00 0.04 0.04 93 1020.4
20260510091328 50 338 7.8 13.0 0.00 0.04 0.04 93 1020.4
20260510090419 50 360 7.8 11.3 0.00 0.04 0.04 92 1020.4
20260510090312 50 321 7.8 11.3 0.00 0.04 0.04 92 1020.4
20260510085423 50 12 4.3 7.8 0.00 0.04 0.04 91 1020.2
20260510085315 50 5 3.5 5.2 0.00 0.04 0.04 91 1020.2
20260510084426 49 135 0.9 3.5 0.00 0.04 0.04 91 1019.8
20260510084323 49 135 1.7 3.5 0.00 0.04 0.04 91 1019.7
20260510083434 50 84 2.6 7.8 0.00 0.04 0.04 90 1019.5
20260510083327 49 98 2.6 7.8 0.00 0.04 0.04 90 1019.5
20260510082439 50 87 3.5 7.0 0.00 0.04 0.04 90 1019.2
20260510082310 50 86 4.3 7.0 0.00 0.04 0.04 90 1019.2
20260510081422 50 84 4.3 7.8 0.00 0.04 0.04 89 1019.0
20260510081332 50 80 4.3 7.8 0.00 0.04 0.04 89 1019.0
20260510080424 50 49 7.0 12.2 0.01 0.04 0.04 89 1019.1
20260510080316 50 61 7.8 12.2 0.01 0.04 0.04 89 1019.1
20260510075428 51 65 10.4 15.6 0.02 0.04 0.04 88 1018.8
20260510075325 51 59 11.3 15.6 0.02 0.04 0.04 87 1018.8
20260510074415 51 49 10.4 18.2 0.04 0.04 0.04 87 1018.5
20260510074328 51 61 11.3 18.2 0.04 0.04 0.04 87 1018.5
20260510073420 52 62 14.8 20.0 0.04 0.04 0.04 86 1018.7
20260510073313 52 63 14.8 20.0 0.04 0.04 0.04 85 1018.8
20260510072445 52 50 12.2 15.6 0.04 0.04 0.04 86 1019.6
20260510072316 52 47 8.7 13.9 0.04 0.04 0.04 86 1019.9
20260510071429 53 360 5.2 17.4 0.04 0.04 0.04 83 1020.7
20260510071319 53 355 6.1 17.4 0.04 0.04 0.04 83 1020.6
20260510070430 53 53 13.0 23.5 0.03 0.03 0.03 82 1020.2
20260510070324 53 78 13.9 23.5 0.03 0.03 0.03 82 1020.1
20260510065416 53 57 8.7 20.0 0.02 0.02 0.02 83 1020.7
20260510065348 53 28 8.7 22.6 0.02 0.02 0.02 83 1020.7
20260510064418 54 61 14.8 21.7 0.00 0.00 0.00 77 1019.9
20260510064311 54 52 14.8 20.9 0.00 0.00 0.00 77 1019.9
20260510063423 54 22 9.6 17.4 0.00 0.00 0.00 79 1020.2
20260510063314 54 24 10.4 17.4 0.00 0.00 0.00 79 1020.1
20260510062427 54 35 11.3 20.9 0.00 0.00 0.00 78 1019.7
20260510062324 54 63 10.4 23.5 0.00 0.00 0.00 78 1019.6
20260510061415 54 40 16.5 21.7 0.00 0.00 0.00 78 1019.1
20260510061327 54 63 16.5 20.9 0.00 0.00 0.00 78 1019.1
20260510060418 54 44 13.0 23.5 0.00 0.00 0.00 77 1019.1
20260510060311 54 40 12.2 24.3 0.00 0.00 0.00 77 1019.1
20260510055422 54 47 18.2 29.5 0.00 0.00 0.00 75 1018.8
20260510055312 54 42 19.1 29.5 0.00 0.00 0.00 75 1018.7
20260510054423 54 59 14.8 22.6 0.00 0.00 0.00 75 1018.8
20260510054316 54 41 15.6 22.6 0.00 0.00 0.00 75 1018.9
20260510053411 54 49 12.2 24.3 0.00 0.00 0.00 75 1018.8
20260510053323 54 28 13.9 24.3 0.00 0.00 0.00 75 1018.8
20260510052414 54 43 15.6 23.5 0.00 0.00 0.00 74 1018.4
20260510052325 54 53 15.6 23.5 0.00 0.00 0.00 74 1018.3
20260510051437 54 36 13.9 22.6 0.00 0.00 0.00 74 1018.1
20260510051309 54 55 13.9 22.6 0.00 0.00 0.00 74 1018.2
20260510050441 55 39 16.5 22.6 0.00 0.00 0.00 72 1018.3
20260510050313 55 38 15.6 21.7 0.00 0.00 0.00 72 1018.3
20260510045444 55 355 15.6 26.1 0.00 0.00 0.00 70 1018.2
20260510045316 55 38 15.6 26.1 0.00 0.00 0.00 70 1018.2
20260510044448 55 68 16.5 23.5 0.00 0.00 0.00 70 1018.3
20260510044343 55 44 14.8 22.6 0.00 0.00 0.00 71 1018.4
20260510043416 57 32 15.6 20.0 0.00 0.00 0.00 70 1019.0
20260510043330 57 38 14.8 20.0 0.00 0.00 0.00 69 1019.0
20260510042419 60 5 13.9 22.6 0.00 0.00 0.00 61 1018.8
20260510042312 60 338 15.6 22.6 0.00 0.00 0.00 60 1018.8
20260510041424 61 326 11.3 20.9 0.00 0.00 0.00 56 1018.6
20260510041317 61 34 12.2 21.7 0.00 0.00 0.00 55 1018.5
20260510040428 61 20 14.8 28.7 0.00 0.00 0.00 54 1018.0
20260510040323 61 343 17.4 29.5 0.00 0.00 0.00 53 1018.1
20260510035413 61 306 26.1 33.0 0.00 0.00 0.00 59 1018.1
20260510035326 60 334 22.6 33.0 0.00 0.00 0.00 60 1017.8
20260510034437 61 48 12.2 18.2 0.00 0.00 0.00 60 1014.9
20260510034328 61 45 13.0 18.2 0.00 0.00 0.00 60 1014.9
20260510033420 61 69 13.0 18.2 0.00 0.00 0.00 59 1014.4
20260510033313 61 50 13.0 18.2 0.00 0.00 0.00 59 1014.4
20260510032428 62 59 10.4 15.6 0.00 0.00 0.00 57 1014.2
20260510032319 62 59 9.6 17.4 0.00 0.00 0.00 57 1014.1
20260510031410 62 88 11.3 19.1 0.00 0.00 0.00 56 1013.5
20260510031327 62 87 12.2 19.1 0.00 0.00 0.00 56 1013.4
20260510030418 63 93 14.8 22.6 0.00 0.00 0.00 55 1012.8
20260510030328 63 65 15.6 22.6 0.00 0.00 0.00 55 1012.8
20260510025440 63 82 12.2 16.5 0.00 0.00 0.00 54 1012.9
20260510025311 63 62 11.3 15.6 0.00 0.00 0.00 54 1012.9
20260510024424 64 61 9.6 17.4 0.00 0.00 0.00 53 1012.9
20260510024317 64 65 11.3 17.4 0.00 0.00 0.00 53 1012.9
20260510023450 64 62 10.4 15.6 0.00 0.00 0.00 53 1012.8
20260510023322 64 69 11.3 15.6 0.00 0.00 0.00 53 1012.8
20260510022413 65 84 10.4 16.5 0.00 0.00 0.00 53 1012.7
20260510022310 65 53 10.4 16.5 0.00 0.00 0.00 53 1012.7
20260510021422 65 59 10.4 16.5 0.00 0.00 0.00 52 1012.4
20260510021315 65 73 10.4 17.4 0.00 0.00 0.00 52 1012.4
20260510020427 66 71 13.0 17.4 0.00 0.00 0.00 51 1012.3
20260510020317 66 85 12.2 17.4 0.00 0.00 0.00 51 1012.3
20260510015447 66 92 13.9 19.1 0.00 0.00 0.00 50 1012.0
20260510015338 66 76 12.2 19.1 0.00 0.00 0.00 50 1012.0
20260510014429 67 76 13.0 19.1 0.00 0.00 0.00 49 1011.8
20260510014321 67 82 13.0 19.1 0.00 0.00 0.00 49 1011.8
20260510013414 68 71 13.0 17.4 0.00 0.00 0.00 48 1011.8
20260510013347 68 93 12.2 17.4 0.00 0.00 0.00 48 1011.7
20260510012416 69 71 11.3 20.0 0.00 0.00 0.00 47 1011.7
20260510012328 69 81 12.2 20.0 0.00 0.00 0.00 47 1011.7
20260510011419 69 46 13.9 22.6 0.00 0.00 0.00 46 1011.5
20260510011311 69 83 14.8 22.6 0.00 0.00 0.00 46 1011.4
20260510010423 70 67 16.5 22.6 0.00 0.00 0.00 46 1011.5
20260510010316 70 63 14.8 22.6 0.00 0.00 0.00 46 1011.4
20260510005427 71 77 13.9 20.0 0.00 0.00 0.00 45 1011.5
20260510005323 71 64 13.9 20.0 0.00 0.00 0.00 45 1011.5
20260510004415 72 52 13.0 20.9 0.00 0.00 0.00 44 1011.2
20260510004328 72 71 13.0 20.9 0.00 0.00 0.00 44 1011.2
20260510003419 73 67 16.5 22.6 0.00 0.00 0.00 42 1010.7
20260510003312 73 63 15.6 21.7 0.00 0.00 0.00 42 1010.6
20260510002424 74 65 16.5 23.5 0.00 0.00 0.00 41 1010.3
20260510002317 74 61 17.4 23.5 0.00 0.00 0.00 41 1010.3
20260510001428 75 65 19.1 27.8 0.00 0.00 0.00 40 1010.1
20260510001325 75 56 20.0 27.8 0.00 0.00 0.00 39 1010.1
20260510000418 77 55 20.9 26.9 0.00 0.00 0.00 38 1009.8
20260510000328 77 62 20.9 26.9 0.00 0.00 0.00 38 1009.8
20260509235420 78 67 13.0 19.1 0.00 0.00 0.00 34 1009.6
20260509235313 78 53 12.2 19.1 0.00 0.00 0.00 34 1009.6
20260509234446 78 29 13.0 26.9 0.00 0.00 0.00 34 1009.6
20260509234338 78 41 13.9 26.9 0.00 0.00 0.00 34 1009.7
20260509233428 79 32 10.4 20.0 0.00 0.00 0.00 36 1009.6
20260509233321 79 28 9.6 20.0 0.00 0.00 0.00 35 1009.7
20260509232416 79 33 12.2 17.4 0.00 0.00 0.00 35 1009.5
20260509232329 79 43 10.4 16.5 0.00 0.00 0.00 34 1009.5
20260509231421 80 36 12.2 20.9 0.00 0.00 0.00 34 1009.3
20260509231312 80 50 13.0 20.9 0.00 0.00 0.00 34 1009.2